This is the latest recevied weather packets stored in our database for station/object KJ7HSW. If no packets are shown the sender has not sent any weather packets the latest 10 day(s).
| Time | Temp. | Humidity | Pressure | Rain* | Wind** | Luminosity | Snow |
|---|---|---|---|---|---|---|---|
| 1777741346 | 19.44° C | 62% | 1017.2 hPa | 0 mm | - | 598 W/m² | - |
| 1777741042 | 18.89° C | 61% | 1017.2 hPa | 0 mm | - | 579 W/m² | - |
| 1777740739 | 18.33° C | 60% | 1017.4 hPa | 0 mm | - | 549 W/m² | - |
| 1777740435 | 17.78° C | 62% | 1017.6 hPa | 0 mm | - | 567 W/m² | - |
| 1777740133 | 16.67° C | 66% | 1017.5 hPa | 0 mm | - | 248 W/m² | - |
| 1777739828 | 17.22° C | 70% | 1017.5 hPa | 0 mm | - | 208 W/m² | - |
| 1777739525 | 17.78° C | 63% | 1017.7 hPa | 0 mm | - | 285 W/m² | - |
| 1777739221 | 17.78° C | 68% | 1017.9 hPa | 0 mm | - | 381 W/m² | - |
| 1777738913 | 17.22° C | 63% | 1017.8 hPa | 0 mm | - | 554 W/m² | - |
| 1777738610 | 16.67° C | 69% | 1017.7 hPa | 0 mm | - | 410 W/m² | - |
| 1777738307 | 16.11° C | 74% | 1017.7 hPa | 0 mm | - | 509 W/m² | - |
| 1777738005 | 16.11° C | 74% | 1017.8 hPa | 0 mm | - | 473 W/m² | - |
| 1777737704 | 15.56° C | 75% | 1017.9 hPa | 0 mm | - | 448 W/m² | - |
| 1777737402 | 15° C | 77% | 1018.1 hPa | 0 mm | - | 375 W/m² | - |
| 1777737098 | 14.44° C | 79% | 1018.1 hPa | 0 mm | - | 390 W/m² | - |
| 1777736794 | 14.44° C | 79% | 1018 hPa | 0 mm | - | 130 W/m² | - |
| 1777736166 | 14.44° C | 77% | 1018.1 hPa | 0 mm | - | 135 W/m² | - |
| 1777735863 | 13.89° C | 80% | 1018.1 hPa | 0 mm | - | 378 W/m² | - |
| 1777735561 | 13.89° C | 82% | 1017.9 hPa | 0 mm | - | 116 W/m² | - |
| 1777735258 | 13.33° C | 82% | 1017.9 hPa | 0 mm | - | 146 W/m² | - |
| 1777734955 | 13.33° C | 83% | 1017.9 hPa | 0 mm | - | 177 W/m² | - |
| 1777734652 | 12.78° C | 85% | 1017.7 hPa | 0 mm | - | 150 W/m² | - |
| 1777734350 | 12.22° C | 87% | 1018.1 hPa | 0 mm | - | 117 W/m² | - |
| 1777734045 | 12.22° C | 89% | 1018 hPa | 0 mm | - | 86 W/m² | - |
| 1777733742 | 11.67° C | 91% | 1017.8 hPa | 0 mm | - | 78 W/m² | - |
* Rain latest hour (hover to see other rain measurements)
** Current wind speed in m/s (hover to see current wind gust speed)